Regional Weather Roundup
Issued by NWS

Home | Current Version | Previous Version | Graphics & Text | Print | Product List | Glossary On
Versions: 1 2 3 4 5 6 7 8 9 10 11 12 13 14 15 16 17 18 19 20 21 22 23 24 25 26 27 28 29 30 31 32 33 34 35 36 37 38 39 40 41 42 43 44 45 46 47 48 49 50
000
ASUS43 KMPX 281710
RWRMN
WEATHER ROUNDUP FOR MINNESOTA
NATIONAL WEATHER SERVICE TWIN CITIES/CHANHASSEN MN
1200 PM CDT MON JUL 28 2014


NOTE: "FAIR" INDICATES FEW OR NO CLOUDS BELOW 12,000 FEET WITH NO
SIGNIFICANT WEATHER AND/OR OBSTRUCTIONS TO VISIBILITY. N/A MEANS
CURRENT SKY AND/OR WEATHER CONDITIONS ARE NOT AVAILABLE.

MNZ060>063-068>070-281800-
   Twin Cities Metro

CITY           SKY/WX    TMP DP  RH WIND       PRES   REMARKS
TWIN CITIES    PTSUNNY   72  51  47 N9        30.20F
ST PAUL        CLOUDY    72  53  51 N12       30.20S
CRYSTAL        CLOUDY    72  54  53 NW7       30.19F
BLAINE         PTSUNNY   73  55  53 N6        30.20
LAKEVILLE      CLOUDY    70  55  60 N7        30.20F
EDEN PRAIRIE   PTSUNNY   73  57  57 NW8       30.20S
SOUTH ST PAUL  CLOUDY    72  51  48 N9        30.19F
LAKE ELMO      CLOUDY    70  57  64 NW8       30.21F
$$
MNZ001>005-007-008-013>017-022>024-027-028-281800-
   Northwest Minnesota

CITY           SKY/WX    TMP DP  RH WIND       PRES   REMARKS
BEMIDJI        PTSUNNY   69  54  58 N8        30.24S
HALLOCK        MOSUNNY   70  57  64 NW10      30.26F
ROSEAU         SUNNY     70  57  64 N8        30.24F
WARROAD        MOSUNNY   70  57  64 NW10      30.24F
THIEF RVR FALL SUNNY     70  52  52 NW10      30.26F
CROOKSTON      SUNNY     70  57  64 N12       30.27S
FOSSTON        PTSUNNY   66  54  63 NW12      30.27S
DETROIT LAKES  MOSUNNY   68  55  64 N12       30.28S
MOORHEAD       PTSUNNY   70  59  68 NW9       30.27F
PARK RAPIDS    MOSUNNY   71  53  52 NW15      30.24S
$$
MNZ006-009>011-018-025>026-281800-
   North Central Minnesota

CITY           SKY/WX    TMP DP  RH WIND       PRES   REMARKS
BAUDETTE       SUNNY     71  54  54 NW12      30.23F
FLAG ISLAND    SUNNY     70  54  56 NW12      30.21F
INTL FALLS     SUNNY     72  54  53 NW9       30.19F
WASKISH        MOSUNNY   72  55  56 CALM      30.22F
BIG FORK       SUNNY     72  52  49 NW6       30.21F
LONGVILLE      PTSUNNY   68  55  64 NW7       30.22S
GRAND RAPIDS   MOSUNNY   70  52  52 NW10G18   30.21S
CRANE LAKE     SUNNY     68  52  56 NW7G18    30.19S
ORR            MOSUNNY   70  52  52 NW8G16    30.17S
COOK           MOSUNNY   70  52  52 NW8G20    30.19F
$$
MNZ012-019>021-037-281800-
   Northeast Minnesota

CITY           SKY/WX    TMP DP  RH WIND       PRES   REMARKS
DULUTH         MOSUNNY   71  53  52 NW13G20   30.18S
ELY            MOSUNNY   68  50  52 NW12G20   30.16S
HIBBING        MOSUNNY   70  51  51 NW15      30.20S
EVELETH        PTSUNNY   68  50  52 N12       30.20S
DULUTH HARBOR  SUNNY     72  55  56 N9        30.17S
TWO HARBORS    MOSUNNY   70  52  52 N7G16     30.14S
SILVER BAY     SUNNY     72  57  60 NW7       30.13S
GRAND MARAIS     N/A     70  52  52 VRB7      30.09S
G MARAIS ARPRT MOSUNNY   63  48  59 NW8G20    30.14S
$$
MNZ029>031-032-039>041-046>048-054>057-064-281800-
   West Central Minnesota

CITY           SKY/WX    TMP DP  RH WIND       PRES   REMARKS
FERGUS FALLS   CLOUDY    66  54  63 N7        30.27S
WHEATON        PTSUNNY   68  55  64 NW8       30.29S
MORRIS         PTSUNNY   66  57  72 NW9       30.26S
ALEXANDRIA     SUNNY     69  55  60 NW14      30.26F
ELBOW LAKE     CLOUDY    65  58  77 NW8       30.27S
WADENA         MOSUNNY   70  55  60 NW6       30.24S
GLENWOOD       PTSUNNY   70  55  60 NW10      30.26S
APPLETON       MOSUNNY   72  54  53 N13       30.25F
BENSON         CLOUDY    68  57  68 N10       30.26S
ORTONVILLE     MOSUNNY   72  52  49 N12G17    30.27S
MADISON        SUNNY     73  57  56 N6        30.26S
WILLMAR        FAIR      72  50  46 N13       30.26S
$$
MNZ033>034-036-042>043-049>051-058-059-281800-
   Central Minnesota

CITY           SKY/WX    TMP DP  RH WIND       PRES   REMARKS
ST CLOUD       MOSUNNY   75  52  44 N9        30.21F
SAUK CENTRE    CLOUDY    69  53  56 NW12G17   30.24S
PAYNESVILLE    CLOUDY    69  53  56 W10       30.24S
AITKIN         MOSUNNY   73  54  49 N13       30.20S
PINE RIVER     CLOUDY    72  52  49 N9G17     30.25S
BRAINERD       PTSUNNY   70  52  52 N10       30.22S
STAPLES        PTSUNNY   70  48  46 NW10      30.24S
LONG PRAIRIE   PTSUNNY   68  52  56 NW8       30.25S
LITTLE FALLS   MOSUNNY   72  48  43 NW10      30.22F
LITCHFIELD     CLOUDY    70  61  73 NW5       30.23F
BUFFALO        PTSUNNY   73  53  50 NW8       30.22F
MAPLE LAKE     PTSUNNY   69  59  70 NW7       30.23S
$$
MNZ037-044-045-052-053-281800-
   East Central Minnesota

CITY           SKY/WX    TMP DP  RH WIND       PRES   REMARKS
PRINCETON      CLOUDY    72  52  49 NW7       30.21S
MORA           MOSUNNY   70  52  52 NW7       30.22S
CAMBRIDGE      SUNNY     73  54  49 NW5       30.19S
RUSH CITY      MOSUNNY   71  53  52 NW5       30.20F
MOOSE LAKE     MOSUNNY   70  52  52 N5        30.18S
HINCKLEY       CLOUDY    70  54  56 N6        30.20S
CLOQUET        PTSUNNY   68  48  49 NW8       30.19S
MCGREGOR       MOSUNNY   70  52  52 NW7       30.21S
$$
MNZ071>073-080-081-089-090-097-098-281800-
   Southwest Minnesota

CITY           SKY/WX    TMP DP  RH WIND       PRES   REMARKS
MONTEVIDEO     CLOUDY    72  59  64 N9        30.26S
GRANITE FALLS  MOSUNNY   70  61  73 NW7       30.26F
CANBY          MOSUNNY   72  54  53 N8        30.27F
MARSHALL       MOSUNNY   68  57  68 NW8       30.25F
REDWOOD FALLS  MOSUNNY   74  55  51 N7        30.23F
OLIVIA         CLOUDY    70  54  56 N6        30.24S
PIPESTONE      MOSUNNY   70  55  60 NE13      30.27S
WINDOM         PTSUNNY   70  57  64 N8        30.25F
WORTHINGTON    CLOUDY    66  57  72 N9        30.27S
JACKSON        CLOUDY    70  57  64 VRB6      30.25S
TRACY          CLOUDY    69  60  72 CALM      30.26S
SLAYTON        CLOUDY    66  58  76 CALM      30.27F
$$
MNZ065>067-074>077-082>085-091>093-281800-
   South Central Minnesota

CITY           SKY/WX    TMP DP  RH WIND       PRES   REMARKS
MANKATO        CLOUDY    70  57  64 NW9       30.22F
NEW ULM        MOSUNNY   70  57  64 N9        30.23F
ST JAMES       MOSUNNY   73  55  53 N7        30.24F
FAIRMONT       PTSUNNY   66  55  68 NW5       30.24S
GLENCOE        SUNNY     71  56  59 NW12      30.21F
FARIBAULT      CLOUDY    75  46  35 N6        30.21S
OWATONNA       MOSUNNY   72  55  56 N6        30.21F
WASECA         CLOUDY    68  54  60 NW7       30.24S
ALBERT LEA     PTSUNNY   72  55  56 NW7       30.22S
$$
MNZ078>079-086>088-094>096-281800-
   Southeast Minnesota

CITY           SKY/WX    TMP DP  RH WIND       PRES   REMARKS
ROCHESTER      CLOUDY    70  52  52 N6        30.22S
RED WING       CLOUDY    73  54  49 W3        30.18F
STANTON        CLOUDY    72  56  57 NW9       30.19F
DODGE CENTER   PTSUNNY   68  57  68 N8        30.21S
WINONA         MOSUNNY   73  54  49 N7        30.18F
AUSTIN         MOSUNNY   70  55  60 N10       30.20S
PRESTON        CLOUDY    67  58  75 N7        30.21S
$$
ABBREVIATIONS USED IN REMARKS
   TC - TEMPERATURES IN CELSIUS
  WCI - WIND CHILL INDEX
   HX - HEAT INDEX
  VSB - VISIBILITY
$$



USA.gov is the U.S. government's official web portal to all federal, state and local government web resources and services.